This demonstration page uses our WeatherBlox Daily Observations layout. Learn more.

39.92423, -83.80882

Hourly Observations for June 14, 2019

Temp ( °F °C ) Dew Point ( °F °C ) Humidity (%) Winds ( mph kmh ) Pressure ( in mb ) Visibility ( mi km ) Precip ( " mm )
12:56 am 00:56 Clear 52 11.1 44 6.7 75 75 W 10 17 30.04 1017 10 16.0934 0 0
1:56 am 01:56 Clear 51 10.6 45 7.2 80 80 WSW 9 15 30.05 1018 10 16.0934 0 0
2:56 am 02:56 Clear 49 9.4 46 7.8 90 90 WSW 8 13 30.06 1018 10 16.0934 0 0
3:56 am 03:56 Clear 48 8.9 46 7.8 93 93 W 8 13 30.07 1018 10 16.0934 0 0
4:56 am 04:56 Clear 48 8.9 46 7.8 93 93 WSW 8 13 30.09 1019 10 16.0934 0 0
5:56 am 05:56 Clear 48 8.9 46 7.8 93 93 WSW 8 13 30.11 1020 10 16.0934 0 0
6:56 am 06:56 Sunny 50 10 47 8.3 89 89 WSW 8 13 30.13 1020 10 16.0934 0 0
7:56 am 07:56 Sunny 54 12.2 49 9.4 83 83 WSW 9 15 30.16 1021 10 16.0934 0 0
8:56 am 08:56 Sunny 59 15 51 10.6 75 75 SW 10 17 30.17 1022 10 16.0934 0 0
9:56 am 09:56 Sunny 63 17.2 50 10 63 63 WSW 12 19 30.17 1022 10 16.0934 0 0
10:56 am 10:56 Sunny 66 18.9 52 11.1 61 61 WSW 15 24 30.17 1022 10 16.0934 0 0
11:56 am 11:56 Sunny 68 20 49 9.4 51 51 WSW 15 24 30.16 1022 10 16.0934 0 0
12:56 pm 12:56 Sunny 69 20.6 49 9.4 49 49 SW 8 13 30.16 1021 10 16.0934 0 0
1:56 pm 13:56 Sunny 70 21.1 48 8.9 46 46 S 8 13 30.14 1021 10 16.0934 0 0
2:56 pm 14:56 Sunny 71 21.7 48 8.9 44 44 SSW 9 15 30.11 1020 10 16.0934 0 0
3:56 pm 15:56 Sunny 73 22.8 47 8.3 40 40 SW 12 19 30.09 1019 10 16.0934 0 0
4:56 pm 16:56 Sunny 73 22.8 47 8.3 40 40 SW 18 30 30.06 1018 10 16.0934 0 0
5:56 pm 17:56 Sunny 72 22.2 46 7.8 40 40 SSW 9 15 30.06 1018 10 16.0934 0 0
6:56 pm 18:56 Sunny 72 22.2 47 8.3 41 41 SSW 14 22 30.05 1018 10 16.0934 0 0
7:56 pm 19:56 Sunny 69 20.6 47 8.3 45 45 S 7 11 30.04 1017 10 16.0934 0 0
8:56 pm 20:56 Sunny 67 19.4 50 10 55 55 SSW 8 13 30.04 1017 10 16.0934 0 0
9:56 pm 21:56 Clear 65 18.3 50 10 59 59 S 5 7 30.04 1017 10 16.0934 0 0
10:56 pm 22:56 Clear 64 17.8 51 10.6 63 63 S 6 9 30.04 1017 10 16.0934 0 0
11:56 pm 23:56 Clear 64 17.8 51 10.6 63 63 S 7 11 30.02 1017 10 16.0934 0 0

Powered by AerisWeather